#timestamp,LO_Frequency,Hit,StdDev 
1557842415.5,286046982.0,N
1557842435.4,286046979.0,N
1557842455.2,286046981.2,N
1557842475.1,286046978.9,N
1557842476.0,286046978.9,N
1557842495.8,286046977.4,N
1557842515.6,286046975.7,N
1557842535.5,286046975.2,N
1557842555.3,286046979.8,N
1557842575.2,286046981.6,N
1557842595.9,286046978.5,N
1557842615.7,286046980.4,N
1557842635.6,286046978.6,N
1557842655.4,286046981.2,N
1557842675.2,286046986.0,N
1557842695.1,286046988.2,N
1557842696.0,286046988.2,N
1557842715.8,286046990.3,N
1557842735.7,286046991.6,N
1557842755.5,286046990.3,N
1557842775.3,286046989.1,N
1557842795.2,286046990.1,N
1557842815.0,286046990.8,N
1557842815.9,286046990.8,N
1557842835.7,286046990.3,N
1557842855.6,286046995.0,N
1557842875.4,286046996.7,N
1557842895.3,286046997.5,N
1557842915.1,286046995.5,N
1557842916.0,286046995.5,N
1557842935.8,286046996.5,N
1557842955.7,286047003.5,N
1557842975.5,286047003.5,N
1557842995.4,286047004.7,N
1557843015.2,286047007.5,N
1557843035.0,286047008.3,N
1557843035.9,286047008.3,N
1557843055.8,286047009.3,N
1557843075.6,286047011.5,N
1557843095.4,286047011.7,N
1557843115.3,286047013.1,N
1557843135.1,286047017.9,N
1557843155.9,286047020.4,N
1557843175.7,286047021.4,N
1557843195.5,286047023.5,N
1557843215.4,286047025.5,N
1557843235.2,286047020.5,N
1557843255.0,286047018.1,N
1557843256.0,286047018.1,N
1557843275.8,286047019.0,N
1557843295.6,286047018.9,N
1557843315.5,286047023.0,N
1557843335.3,286047025.3,N
1557843355.1,286047022.0,N
1557843375.9,286047019.0,N
1557843395.7,286047021.3,N
1557843415.6,286047025.1,N
1557843435.4,286047027.7,N
1557843455.2,286047028.3,Y
1557843475.1,286047018.1,P
1557843476.0,286047018.1,P
1557843495.8,286047022.9,P
1557843515.7,286047028.4,Y
1557843535.5,286047010.4,P
1557843555.3,286047007.7,N
1557843575.2,286047012.3,N
1557843595.0,286047013.6,Y
1557843595.9,286047013.6,P
1557843615.7,286046999.8,N
1557843635.6,286047006.6,N
1557843655.4,286047011.4,N
1557843675.3,286047015.1,N
1557843695.1,286047026.8,Y
1557843715.8,286047019.4,P
1557843735.7,286047018.3,P
1557843755.5,286047017.6,P
1557843775.4,286047020.3,Y
1557843795.2,286047007.1,P
1557843815.0,286047009.4,N
1557843815.9,286047009.4,N
1557843835.8,286047012.2,Y
1557843855.6,286047004.3,P
1557843875.5,286047003.9,N
1557843895.3,286047008.4,N
1557843915.1,286047011.2,Y
1557843935.9,286047004.6,P
1557843955.7,286047013.4,P
1557843975.5,286047014.1,P
1557843995.4,286047020.2,Y
1557844015.2,286047012.8,P
1557844035.1,286047016.9,P
1557844036.0,286047016.9,P
1557844055.8,286047018.7,Y
1557844075.6,286047004.6,P
1557844095.5,286047005.6,N
1557844115.3,286047004.3,N
1557844135.2,286047001.3,N
1557844155.9,286047003.4,N
1557844175.7,286047004.8,N
1557844195.6,286047006.9,N
1557844215.4,286047006.9,N
1557844235.2,286047006.9,N
1557844255.1,286047009.4,N
1557844256.0,286047009.4,N
1557844275.8,286047006.1,N
1557844295.7,286047007.1,N
1557844315.5,286047012.3,Y
1557844335.3,286047005.6,P
1557844355.2,286047003.1,P
1557844375.0,286047001.7,N
1557844375.9,286047001.7,N
1557844395.7,286047003.4,N
1557844415.6,286047000.3,N
1557844435.4,286046998.3,N
1557844455.3,286046998.9,N
1557844475.1,286046996.5,N
1557844476.0,286046996.5,N
1557844495.8,286046990.1,Y
1557844515.7,286046988.7,P
1557844535.5,286046991.3,N
1557844555.4,286046993.8,N
1557844575.2,286046994.5,N
1557844595.0,286046990.8,N
1557844596.0,286046990.8,N
1557844615.8,286046988.9,N
1557844635.6,286046990.3,N
1557844655.5,286046993.2,N
1557844675.3,286046990.6,N
1557844695.1,286046987.5,Y
1557844715.9,286046992.4,P
1557844735.7,286046991.1,P
1557844755.6,286046988.5,P
1557844775.4,286046987.8,Y
1557844825.3,286046997.1,E
1557844835.2,286047005.5,N
1557844855.0,286047013.7,P
1557844855.9,286047013.7,P
1557844875.8,286047011.3,N
1557844895.6,286047012.6,Y
1557844915.4,286047001.8,P
1557844935.3,286047000.0,N
1557844955.1,286047001.0,N
1557844975.9,286046998.9,N
1557844995.7,286046995.5,N
1557845015.5,286046993.1,N
1557845035.4,286046988.3,N
1557845055.2,286046986.3,N
1557845075.0,286046986.4,N
1557845075.9,286046986.4,N
1557845095.8,286046988.4,N
1557845115.6,286046983.8,N
1557845135.5,286046986.5,N
1557845155.3,286046985.8,N
1557845175.1,286046985.5,N
1557845195.9,286046987.0,N
1557845215.7,286046989.2,N
1557845235.6,286046987.1,N
1557845255.4,286046988.3,N
1557845275.2,286046985.6,N
1557845295.1,286046986.3,N
1557845296.0,286046986.3,N
1557845315.8,286046981.2,N
1557845335.6,286046983.2,N
1557845355.5,286046986.7,N
1557845375.3,286046988.1,N
1557845395.2,286046988.7,N
1557845415.0,286046989.7,N
1557845415.9,286046989.7,N
1557845435.7,286046986.1,N
1557845455.6,286046986.7,N
1557845475.4,286046984.4,Y
1557845495.3,286046994.7,P
1557845515.1,286046995.5,N
1557845535.8,286047004.2,N
1557845555.7,286047006.0,N
1557845575.5,286047007.0,N
1557845595.4,286047003.0,N
1557845615.2,286047004.0,N
1557845635.0,286047007.0,N
1557845635.9,286047007.0,N
1557845655.8,286047003.7,N
1557845675.6,286047009.2,N
1557845695.4,286047011.7,N
1557845715.3,286047012.3,N
1557845735.1,286047017.9,N
1557845755.9,286047018.2,N
1557845775.7,286047016.9,N
1557845795.5,286047014.9,N
1557845815.4,286047019.5,N
1557845835.2,286047019.3,N
1557845855.0,286047023.6,N
1557845855.9,286047023.6,N
1557845875.8,286047022.8,N
1557845895.6,286047026.2,N
1557845915.5,286047028.8,N
1557845935.3,286047033.8,Y
1557845955.1,286047024.4,P
1557845975.9,286047027.0,P
1557845995.7,286047032.3,P
